Change the Weather History Date:

Monday, December 3, 2012

  Actual Average Record
Temperature  
Mean Temperature 53 °F 46 °F  
Max Temperature 57 °F 52 °F 67 °F (1979)
Min Temperature 48 °F 40 °F 26 °F (1919)
Degree Days  
Heating Degree Days 12 19  
Month to date heating degree days 40 57  
Since 1 July heating degree days 1326 1509  
Cooling Degree Days 0 0  
Month to date cooling degree days 0 0  
Year to date cooling degree days 1 2  
Growing Degree Days 2 (Base 50)    
Moisture  
Dew Point 48 °F    
Average Humidity 86    
Maximum Humidity 100    
Minimum Humidity 72    
Precipitation  
Precipitation 0.14 in 0.38 in 4.77 in (1987)
Month to date precipitation 2.13 1.17  
Year to date precipitation 45.63 54.95  
Sea Level Pressure  
Sea Level Pressure 29.98 in    
Wind  
Wind Speed 8 mph (SSE)    
Max Wind Speed 12 mph    
Max Gust Speed 17 mph    
Visibility 10 miles    
Events      
T = Trace of Precipitation, MM = Missing Value Source: NWS Daily Summary

Daily Weather History Graph

Daily Weather History Graph

Search for Another Location

Airport or City:

Trip Planner

Search our weather history database for the weather conditions in past years. The results will help you decide how hot, cold, wet, or windy it might be!

Date:

Astronomy

Dec. 03, 2012 Rise Set
Actual Time 7:32 AM PST 4:41 PM PST
Civil Twilight 7:00 AM PST 5:13 PM PST
Nautical Twilight 6:24 AM PST 5:49 PM PST
Astronomical Twilight 5:50 AM PST 6:23 PM PST
Moon 9:39 PM PST (12/3) 10:54 AM PST (12/3)
Length of Visible Light 10h 13m
Length of Day
9h 08m
Waning Gibbous, 77% of the Moon is Illuminated
Dec 3
Waning Gibbous
Dec 6
Last Quarter
Dec 13
New
Dec 19
First Quarter
Dec 28
Full

Hourly Weather History & Observations

Time (PST) Temp. Dew Point Humidity Pressure Visibility Wind Dir Wind Speed Gust Speed Precip Events Conditions
12:15 AM 51.8 °F 48.2 °F 88% 30.03 in 10.0 mi South 9.2 mph - N/A   Unknown
12:35 AM 50.0 °F 48.2 °F 94% 30.04 in 10.0 mi SSE 6.9 mph - N/A   Unknown
12:55 AM 48.2 °F 48.2 °F 100% 30.04 in 10.0 mi SE 6.9 mph - N/A   Unknown
1:15 AM 48.2 °F 48.2 °F 100% 30.04 in 10.0 mi SSE 6.9 mph - N/A   Unknown
1:35 AM 48.2 °F 48.2 °F 100% 30.04 in 10.0 mi SE 8.1 mph - N/A   Unknown
1:55 AM 48.2 °F 48.2 °F 100% 30.05 in 10.0 mi SE 9.2 mph - N/A   Unknown
2:15 AM 50.0 °F 48.2 °F 94% 30.05 in 10.0 mi SSE 9.2 mph - N/A   Unknown
2:35 AM 51.8 °F 48.2 °F 88% 30.05 in 10.0 mi South 8.1 mph - N/A   Unknown
2:55 AM 51.8 °F 48.2 °F 88% 30.05 in 10.0 mi South 10.4 mph 17.3 mph N/A   Unknown
3:15 AM 51.8 °F 50.0 °F 94% 30.05 in 10.0 mi SSE 10.4 mph 16.1 mph N/A   Unknown
3:35 AM 51.8 °F 48.2 °F 88% 30.05 in 10.0 mi SSE 6.9 mph - N/A   Unknown
3:55 AM 50.0 °F 48.2 °F 94% 30.06 in 10.0 mi SSE 8.1 mph - N/A   Unknown
4:15 AM 50.0 °F 48.2 °F 94% 30.06 in 10.0 mi SE 8.1 mph - N/A   Unknown
4:35 AM 50.0 °F 48.2 °F 94% 30.06 in 10.0 mi SSE 8.1 mph - N/A   Unknown
4:55 AM 50.0 °F 48.2 °F 94% 30.06 in 10.0 mi SSE 9.2 mph - N/A   Unknown
5:15 AM 50.0 °F 48.2 °F 94% 30.06 in 10.0 mi SSE 8.1 mph - N/A   Unknown
5:35 AM 50.0 °F 46.4 °F 87% 30.06 in 10.0 mi SSE 8.1 mph - N/A   Unknown
5:55 AM 50.0 °F 46.4 °F 87% 30.06 in 10.0 mi SSE 8.1 mph - N/A   Unknown
6:15 AM 48.2 °F 46.4 °F 93% 30.06 in 10.0 mi SSE 8.1 mph - N/A   Unknown
6:35 AM 50.0 °F 46.4 °F 87% 30.07 in 10.0 mi SSE 8.1 mph - N/A   Unknown
7:15 AM 50.0 °F 46.4 °F 87% 30.07 in 10.0 mi SSE 6.9 mph - N/A   Mostly Cloudy
7:35 AM 50.0 °F 46.4 °F 87% 30.07 in 10.0 mi SSE 5.8 mph - N/A   Mostly Cloudy
7:55 AM 50.0 °F 46.4 °F 87% 30.08 in 10.0 mi SSE 5.8 mph - N/A   Mostly Cloudy
8:15 AM 50.0 °F 46.4 °F 87% 30.08 in 10.0 mi SSE 6.9 mph - N/A   Mostly Cloudy
8:35 AM 50.0 °F 46.4 °F 87% 30.08 in 10.0 mi SE 6.9 mph - N/A   Mostly Cloudy
8:55 AM 51.8 °F 46.4 °F 82% 30.08 in 10.0 mi SSE 4.6 mph - N/A   Mostly Cloudy
9:15 AM 51.8 °F 46.4 °F 82% 30.08 in 10.0 mi SSE 6.9 mph - N/A   Mostly Cloudy
9:35 AM 51.8 °F 48.2 °F 88% 30.08 in 10.0 mi SSE 6.9 mph - N/A   Mostly Cloudy
9:55 AM 53.6 °F 48.2 °F 82% 30.08 in 10.0 mi SSE 9.2 mph - N/A   Mostly Cloudy
10:15 AM 53.6 °F 48.2 °F 82% 30.08 in 10.0 mi SSE 10.4 mph - N/A   Mostly Cloudy
10:35 AM 55.4 °F 48.2 °F 77% 30.09 in 10.0 mi SSE 11.5 mph - N/A   Mostly Cloudy
11:15 AM 55.4 °F 48.2 °F 77% 30.08 in 10.0 mi SSE 8.1 mph - N/A   Mostly Cloudy
11:35 AM 55.4 °F 48.2 °F 77% 30.08 in 10.0 mi SSE 8.1 mph - N/A   Mostly Cloudy
11:55 AM 57.2 °F 48.2 °F 72% 30.07 in 10.0 mi SSE 10.4 mph - N/A   Mostly Cloudy
12:15 PM 57.2 °F 48.2 °F 72% 30.07 in 10.0 mi SSE 11.5 mph - N/A   Mostly Cloudy
12:35 PM 57.2 °F 48.2 °F 72% 30.06 in 10.0 mi SSE 10.4 mph - N/A   Mostly Cloudy
12:55 PM 57.2 °F 48.2 °F 72% 30.06 in 10.0 mi South 8.1 mph - N/A   Mostly Cloudy
1:15 PM 57.2 °F 48.2 °F 72% 30.06 in 10.0 mi South 8.1 mph - N/A   Unknown
1:35 PM 55.4 °F 50.0 °F 82% 30.05 in 6.0 mi South 5.8 mph - N/A   Mostly Cloudy
1:55 PM 55.4 °F 50.0 °F 82% 30.04 in 10.0 mi SSE 5.8 mph - N/A   Mostly Cloudy
2:15 PM 55.4 °F 48.2 °F 77% 30.03 in 10.0 mi SSE 8.1 mph - N/A   Overcast
2:35 PM 55.4 °F 48.2 °F 77% 30.02 in 10.0 mi South 8.1 mph - N/A   Overcast
2:55 PM 55.4 °F 48.2 °F 77% 30.02 in 10.0 mi South 10.4 mph - N/A   Overcast
3:15 PM 55.4 °F 48.2 °F 77% 30.01 in 10.0 mi SSE 9.2 mph - N/A   Overcast
3:35 PM 55.4 °F 46.4 °F 72% 30.01 in 10.0 mi South 8.1 mph - N/A   Overcast
3:55 PM 55.4 °F 48.2 °F 77% 30.00 in 10.0 mi SSE 9.2 mph - N/A   Overcast
4:15 PM 55.4 °F 46.4 °F 72% 29.99 in 10.0 mi South 10.4 mph - N/A   Overcast
4:35 PM 55.4 °F 48.2 °F 77% 29.98 in 10.0 mi SSE 10.4 mph - N/A   Overcast
4:55 PM 55.4 °F 46.4 °F 72% 29.97 in 10.0 mi South 8.1 mph - N/A   Overcast
5:15 PM 53.6 °F 46.4 °F 77% 29.95 in 10.0 mi SSE 10.4 mph - N/A   Unknown
5:35 PM 53.6 °F 46.4 °F 77% 29.93 in 10.0 mi SSE 6.9 mph - N/A   Unknown
5:55 PM 53.6 °F 48.2 °F 82% 29.91 in 10.0 mi SE 6.9 mph - N/A   Unknown
6:15 PM 53.6 °F 48.2 °F 82% 29.90 in 10.0 mi SE 5.8 mph - N/A   Unknown
6:35 PM 53.6 °F 48.2 °F 82% 29.89 in 10.0 mi SSE 8.1 mph - N/A   Unknown
6:55 PM 51.8 °F 48.2 °F 88% 29.89 in 10.0 mi SSE 5.8 mph - N/A   Unknown
7:15 PM 51.8 °F 48.2 °F 88% 29.88 in 10.0 mi SE 8.1 mph - 0.01 in   Scattered Clouds
7:35 PM 51.8 °F 48.2 °F 88% 29.86 in 10.0 mi SE 6.9 mph - 0.02 in   Scattered Clouds
7:55 PM 51.8 °F 48.2 °F 88% 29.83 in 10.0 mi SE 9.2 mph - 0.03 in   Scattered Clouds
8:15 PM 50.0 °F 48.2 °F 94% 29.82 in 10.0 mi SSE 6.9 mph - N/A   Unknown
8:35 PM 50.0 °F 48.2 °F 94% 29.81 in 10.0 mi SSE 6.9 mph - 0.01 in   Unknown
8:55 PM 50.0 °F 48.2 °F 94% 29.79 in 10.0 mi SE 6.9 mph - 0.02 in   Unknown
9:15 PM 48.2 °F 46.4 °F 93% 29.78 in 10.0 mi SSE 5.8 mph - 0.01 in   Unknown
9:35 PM 48.2 °F 48.2 °F 100% 29.77 in 10.0 mi SSE 8.1 mph - 0.01 in   Unknown
9:55 PM 48.2 °F 46.4 °F 93% 29.76 in 9.0 mi SE 8.1 mph - 0.04 in   Unknown
10:15 PM 48.2 °F 48.2 °F 100% 29.75 in 10.0 mi SE 11.5 mph - 0.04 in   Unknown
10:35 PM 48.2 °F 48.2 °F 100% 29.73 in 10.0 mi SE 12.7 mph - 0.05 in   Unknown
10:55 PM 48.2 °F 48.2 °F 100% 29.74 in 10.0 mi SSE 9.2 mph - 0.05 in   Unknown
11:15 PM 50.0 °F 48.2 °F 94% 29.72 in 10.0 mi SSE 12.7 mph - N/A   Unknown
11:35 PM 51.8 °F 48.2 °F 88% 29.71 in 10.0 mi SSE 13.8 mph 19.6 mph N/A   Unknown
11:55 PM 53.6 °F 50.0 °F 88% 29.70 in 10.0 mi South 15.0 mph 21.9 mph N/A   Unknown